Wind_Speed
33 32 29 27 27 28 30 30 29 29 30 30 30 30 30 30 30 31 33 34 35 35 34 34 34 31 28 28 30 31 29 26 24 24 24 25 26 26 25 26 26 28 29 29 29 29 29 29 29 29 29 29 30 30 30 30 30 30 30 29 29 28 28 27 27 28 28 28 27 27 27 27 27 27 27 28 28 28 28 28 29 29 30 31 31 32
34 33 30 29 30 31 31 31 30 30 31 31 31 31 32 32 32 32 34 36 37 37 34 34 34 31 28 28 29 30 29 26 26 26 26 26 26 26 25 26 28 28 29 30 31 31 30 29 29 29 30 30 30 30 31 31 30 31 31 30 30 29 29 29 29 29 30 30 30 29 29 29 29 29 30 30 30 30 30 30 30 31 31 32 32 32
36 34 31 31 33 33 33 32 32 32 32 32 33 33 33 33 34 34 35 37 39 39 36 35 35 31 27 27 27 28 29 27 27 27 27 27 26 25 26 27 28 29 30 31 32 33 32 30 30 30 31 30 30 30 31 31 31 31 31 31 31 31 30 30 31 31 31 31 32 32 32 32 32 32 32 32 32 32 32 32 32 32 32 32 32 33
37 35 34 34 35 34 34 34 34 34 33 33 34 35 34 34 35 36 36 38 39 40 38 37 38 33 27 26 25 26 29 27 27 28 28 27 26 25 26 28 29 30 31 32 31 32 32 31 30 30 31 31 30 31 32 32 32 32 32 32 32 32 31 31 32 32 32 32 33 33 34 34 34 34 34 34 34 34 33 33 32 31 31 32 33 34
39 38 37 37 37 36 36 35 35 35 35 35 35 36 35 35 37 37 38 40 39 40 39 39 41 35 28 28 25 25 29 27 27 29 28 26 26 27 27 28 30 30 32 32 32 33 33 31 30 30 31 31 31 31 32 33 33 32 33 33 33 32 32 33 33 33 33 33 34 34 34 34 34 34 34 34 33 33 33 32 32 31 31 32 33 34
41 41 40 39 38 38 37 36 36 37 36 36 36 36 36 37 38 39 40 41 41 40 39 41 44 38 30 29 26 25 29 28 28 30 27 26 27 28 28 29 30 31 32 33 33 33 33 32 31 31 31 31 32 32 33 33 33 33 33 33 33 33 33 34 33 34 34 34 35 35 35 34 34 34 33 33 32 32 32 32 32 32 33 33 34 34
43 42 41 40 40 39 39 37 36 37 37 37 37 37 38 39 40 40 41 42 43 42 40 41 44 43 35 29 26 26 29 28 28 28 26 26 28 29 30 30 31 31 32 33 33 33 33 32 31 31 31 31 32 32 33 34 34 34 34 33 33 34 34 34 34 34 35 35 35 35 34 34 34 34 33 32 31 32 32 33 33 33 33 34 35 36
46 43 42 42 42 41 40 37 36 37 38 39 39 38 39 39 40 41 41 43 43 43 44 41 40 45 41 31 26 26 28 27 24 24 25 27 29 30 31 31 31 32 32 32 32 32 32 32 31 31 31 31 32 32 33 34 34 34 34 34 34 34 34 34 34 35 35 35 35 34 34 35 34 34 33 32 32 33 33 33 33 34 35 36 37 39
48 46 44 43 43 42 40 38 37 38 39 39 39 39 39 40 42 42 43 44 44 46 47 40 36 44 46 35 29 28 26 23 21 22 25 27 29 31 32 32 32 32 32 32 32 33 33 32 31 31 32 31 32 32 33 34 34 34 34 34 34 34 34 35 35 35 35 34 34 34 34 34 34 34 33 33 34 34 35 34 35 36 37 38 40 42
50 49 47 45 44 42 40 39 38 37 38 38 40 41 41 42 43 44 45 45 46 49 47 38 34 43 50 41 31 29 26 22 21 22 25 27 29 31 32 33 33 33 33 32 33 33 34 33 32 32 32 32 32 32 33 34 34 34 34 35 35 35 35 35 35 35 34 34 33 34 34 34 34 34 34 35 35 36 36 36 37 38 40 41 42 44
51 50 48 46 44 42 40 40 39 37 38 39 41 43 44 45 46 46 47 45 48 52 47 38 36 43 53 45 31 29 28 23 23 24 25 27 29 31 33 34 34 33 33 33 34 34 34 33 33 33 33 33 33 33 33 34 34 34 34 35 35 35 35 36 36 35 34 34 34 34 34 34 34 35 35 36 37 37 38 39 40 41 42 43 44 45
51 50 49 47 46 44 43 42 41 40 40 41 43 44 44 46 47 47 48 48 51 53 46 41 40 45 52 44 32 32 32 28 26 26 26 27 29 31 34 35 35 34 34 35 35 35 35 33 33 33 34 34 34 34 34 34 35 35 35 35 35 35 36 36 36 35 35 34 34 34 34 34 35 36 36 37 39 40 40 41 42 43 44 44 45 46
53 52 51 50 49 48 46 44 43 43 42 42 43 44 44 45 48 50 51 51 52 52 47 44 45 48 49 40 34 35 35 32 29 26 26 27 29 32 34 36 36 36 36 35 35 35 34 33 32 32 34 34 34 35 35 35 35 35 35 35 35 36 37 36 35 35 35 34 34 34 34 35 35 36 37 39 40 41 42 42 43 44 45 45 46 47
56 55 54 53 51 49 47 46 45 44 43 44 45 45 45 47 51 53 52 51 50 50 48 47 48 49 44 36 34 34 35 35 32 29 29 28 30 32 33 35 36 36 36 35 34 34 33 33 32 32 33 34 35 35 36 35 35 35 35 35 36 36 36 35 35 35 34 34 34 34 35 35 36 37 39 40 42 42 43 43 44 45 46 46 47 49
57 57 55 53 52 50 49 49 48 47 47 49 49 49 50 51 51 51 51 50 50 50 49 49 49 47 40 36 35 35 35 35 34 33 32 30 30 30 31 33 34 35 35 33 32 32 32 32 33 33 34 35 35 36 36 36 35 35 35 36 36 36 36 35 35 34 34 34 35 35 36 36 37 39 40 42 43 43 44 44 45 46 47 48 49 50
59 59 57 55 54 53 52 52 52 51 52 53 53 53 53 50 46 48 52 52 51 52 51 51 49 46 41 39 38 38 36 35 35 35 34 32 31 30 31 32 33 34 33 32 32 31 32 32 33 33 34 36 36 36 36 35 35 35 36 36 37 36 35 35 34 34 34 35 35 36 37 38 39 40 41 43 44 44 45 46 47 47 48 50 51 52
59 59 57 56 55 55 55 55 55 54 54 55 56 54 51 47 45 49 53 53 52 54 54 51 49 45 43 41 39 38 38 36 36 36 34 33 32 32 32 32 32 33 33 33 33 32 33 33 33 33 34 36 36 36 36 36 36 36 37 37 37 36 35 34 34 34 35 35 36 37 38 39 40 41 42 43 44 45 46 47 48 49 50 52 53 54
58 58 58 58 57 56 55 55 56 55 55 56 55 52 48 47 49 51 52 53 53 55 55 53 49 46 44 42 38 39 40 39 37 36 34 33 32 33 33 33 33 33 34 34 34 34 34 33 33 34 35 36 36 37 37 37 37 37 37 38 37 36 36 35 35 35 35 36 37 38 39 40 41 42 43 44 45 46 47 48 50 51 52 54 55 56
54 55 56 56 56 55 54 54 55 54 53 52 51 50 49 50 52 51 52 53 53 55 56 53 51 48 45 43 42 43 43 41 39 37 34 32 32 33 33 33 34 35 35 36 36 35 34 33 33 34 35 36 36 37 38 38 38 38 38 38 37 37 37 37 36 36 37 38 39 40 41 42 43 44 45 45 46 48 49 50 52 53 54 55 56 58
49 50 52 53 52 52 52 52 53 52 50 48 47 47 48 50 52 51 52 52 53 55 55 53 52 49 45 45 46 46 44 42 39 36 34 32 34 34 33 34 35 36 36 37 37 36 34 34 34 34 35 36 36 37 38 39 39 39 38 38 38 39 39 39 39 39 40 41 41 42 43 44 45 46 47 48 49 50 51 53 54 56 57 57 58 60
48 50 53 53 52 52 52 51 50 48 47 46 46 47 48 49 50 50 52 52 53 53 52 52 54 51 47 45 46 47 45 42 40 37 33 31 33 35 34 35 36 37 38 38 37 37 35 34 34 34 35 35 36 37 38 39 39 39 39 39 40 41 42 42 43 43 44 44 45 46 46 47 48 48 49 51 52 53 54 56 58 59 59 60 61 62
51 52 53 53 54 54 52 49 48 47 47 47 48 49 49 49 49 51 53 51 50 49 48 52 56 54 49 45 46 49 46 42 42 41 36 32 33 36 36 36 37 37 38 38 38 37 36 35 35 35 35 36 37 37 38 39 40 40 41 41 42 44 44 45 46 46 47 48 49 49 49 49 50 51 52 53 54 56 57 59 61 62 62 63 63 64
50 50 52 55 57 57 55 52 50 50 50 50 51 51 51 51 51 52 51 48 47 47 48 54 58 56 49 45 48 51 47 43 44 45 41 35 35 36 37 36 37 37 38 39 38 38 38 37 36 35 36 37 38 39 39 40 41 41 42 43 44 45 45 47 47 48 48 49 50 50 51 52 53 53 54 55 57 58 59 61 63 64 64 64 65 65
51 52 53 55 56 57 57 56 54 53 53 54 54 53 51 50 49 48 48 46 48 50 51 56 60 57 52 48 50 51 48 46 47 47 45 41 38 38 38 36 36 37 37 38 39 39 38 37 35 35 35 37 38 39 40 41 41 42 43 43 44 44 45 46 46 47 49 50 51 52 53 55 55 56 58 59 60 61 62 64 65 65 65 66 66 67
53 52 51 51 53 56 59 59 58 58 57 55 52 49 48 48 46 47 48 47 50 53 53 57 60 57 53 50 50 51 50 50 50 49 49 48 45 43 40 38 38 38 38 38 38 38 38 37 36 36 36 37 37 38 38 39 40 40 41 42 43 44 45 46 47 48 49 51 52 54 55 57 58 59 61 62 63 63 64 65 65 66 66 67 67 68
54 54 53 52 55 58 61 62 60 57 53 48 46 45 46 46 46 47 47 48 53 56 57 60 60 55 52 52 52 52 52 53 53 53 54 53 51 47 43 41 40 38 38 38 38 38 38 38 38 38 37 36 36 36 37 38 39 40 42 43 44 45 46 47 49 50 52 54 55 56 57 59 60 62 63 63 64 64 65 66 66 66 67 67 68 68
55 56 55 55 57 58 59 58 56 52 48 46 45 44 44 44 44 46 48 52 57 59 60 60 58 56 54 53 53 52 53 55 56 57 57 55 52 49 46 45 41 38 37 38 39 40 40 40 41 40 39 38 37 38 38 40 41 43 45 46 47 47 48 49 51 52 54 55 56 58 59 60 61 62 63 63 63 64 64 65 66 66 66 67 68 68
55 56 55 54 54 53 52 52 52 51 50 48 46 45 45 45 46 49 54 55 56 59 60 56 56 58 56 52 51 53 56 58 58 57 56 54 51 50 48 46 43 40 39 39 41 42 42 43 43 42 41 41 42 42 42 42 43 44 45 46 47 48 49 50 52 53 54 56 57 59 60 60 61 61 61 61 61 61 62 63 64 65 66 67 68 69
49 49 48 48 49 47 45 47 49 50 50 50 49 49 48 50 52 55 57 56 57 61 62 57 58 61 57 53 55 57 57 56 53 52 53 53 52 51 49 48 47 45 43 42 42 43 44 45 45 45 45 45 45 45 44 44 44 45 45 47 48 50 51 52 53 54 55 56 56 57 59 61 61 61 61 60 60 60 61 62 63 65 66 68 69 70
41 41 41 43 44 42 40 41 44 46 48 49 50 50 50 53 56 58 58 57 59 64 62 58 60 62 59 57 58 57 54 51 50 52 52 51 50 50 51 51 50 50 48 45 45 45 46 47 48 48 48 48 47 47 46 46 46 47 49 50 52 53 54 54 55 55 55 55 55 57 59 61 62 62 63 62 61 61 61 63 64 66 67 69 70 72
39 39 39 40 42 41 37 39 42 44 45 46 46 46 49 53 57 59 58 57 60 62 60 59 62 62 58 57 56 54 54 53 52 51 48 47 48 50 52 52 52 51 51 49 47 46 47 49 50 50 49 48 49 48 48 48 49 50 52 53 54 55 55 56 56 55 54 54 56 57 58 60 62 64 65 65 63 63 64 65 66 68 69 71 72 72
40 40 39 40 43 41 38 40 43 44 47 49 48 48 50 53 55 56 57 57 59 60 59 60 63 61 57 56 55 54 53 52 50 48 46 47 48 50 51 52 51 51 51 50 49 47 47 49 51 50 49 49 50 50 50 50 51 52 53 53 54 55 56 57 56 56 55 56 57 56 56 58 61 64 66 66 66 66 66 67 69 70 72 72 72 71
40 40 39 40 43 42 40 43 45 47 52 55 50 47 48 51 53 54 54 54 55 56 56 59 61 57 54 54 54 52 50 48 47 46 47 47 48 50 51 51 50 50 50 51 50 49 49 50 52 52 51 51 52 52 52 52 52 53 53 54 55 56 57 58 57 57 58 58 56 54 56 60 63 65 66 68 68 67 68 69 71 71 71 70 69 69
42 42 41 42 44 45 45 47 49 52 56 54 48 46 47 49 51 52 52 51 50 52 54 55 54 51 50 50 50 49 48 46 45 44 45 47 48 49 49 49 49 49 49 50 50 51 52 53 55 56 56 54 53 53 53 54 54 54 55 56 57 58 58 58 58 58 58 56 54 54 58 63 65 66 67 67 68 68 69 70 70 69 68 67 67 68
43 44 45 46 48 48 47 48 51 54 54 49 46 47 49 51 52 52 52 51 49 50 51 51 50 48 48 48 48 48 47 46 45 45 45 47 48 49 49 48 48 48 49 50 51 53 54 55 55 56 56 56 55 55 56 56 56 57 57 58 58 58 58 58 57 57 55 53 54 58 62 65 67 67 67 68 69 70 70 69 67 65 66 66 68 69
44 44 45 47 50 49 48 49 52 52 48 45 46 49 50 52 52 51 52 50 47 47 50 50 49 48 48 49 48 49 49 49 48 48 48 49 49 49 49 49 50 51 51 52 53 54 55 55 56 56 56 57 57 58 58 58 58 59 59 59 59 58 58 57 56 54 53 55 58 62 65 67 68 68 69 71 71 70 67 65 64 65 66 67 68 69
48 48 46 47 48 48 49 50 51 50 48 47 49 51 52 52 51 51 53 50 45 46 50 51 50 48 48 49 49 50 50 51 51 50 49 51 51 51 52 52 53 53 53 53 54 55 55 57 57 57 58 59 59 59 59 59 59 59 59 59 58 57 56 55 53 53 54 58 63 66 68 69 70 71 72 72 69 66 64 63 64 65 66 67 69 70
52 52 51 50 50 49 49 50 51 53 53 50 51 53 54 54 54 55 56 51 45 46 51 52 49 48 48 49 50 50 51 53 52 50 49 52 53 54 55 56 56 56 55 55 56 56 57 58 59 59 60 60 60 59 58 58 57 57 57 57 56 55 54 53 53 55 58 63 67 70 71 72 72 72 71 68 65 63 63 64 65 66 67 68 69 70
56 55 55 55 54 52 52 53 54 55 54 50 51 55 55 55 55 57 58 53 47 46 50 50 48 47 48 50 50 51 52 53 52 50 51 54 55 55 56 57 57 57 57 58 58 59 59 60 60 60 60 60 59 58 57 57 56 55 54 53 53 53 52 53 55 59 64 68 71 72 73 72 71 69 66 64 63 63 63 64 65 66 67 68 69 70
58 58 58 58 58 56 56 57 57 57 55 52 53 55 55 55 55 57 58 54 48 47 49 49 48 48 49 50 51 52 53 53 51 50 51 53 53 55 56 57 57 58 58 58 59 59 59 60 60 60 60 59 59 58 58 57 54 52 51 52 53 54 54 57 60 64 67 70 72 73 72 70 68 65 64 63 63 63 64 65 66 67 68 69 70 71
60 61 60 59 59 58 57 58 59 58 55 53 54 56 56 57 57 58 56 51 47 49 50 48 48 47 47 48 49 50 50 49 48 47 48 49 50 51 52 54 55 56 56 57 57 57 58 58 58 58 58 58 58 57 56 55 52 51 52 54 55 56 58 62 65 67 70 71 72 71 69 67 65 63 63 63 63 64 65 66 66 67 69 70 71 72
61 62 62 60 59 58 58 59 60 60 57 56 57 58 59 59 59 57 54 50 49 49 49 48 47 45 44 44 44 45 45 46 46 46 47 48 48 49 49 50 51 52 52 53 54 54 54 55 55 56 56 56 56 55 54 53 52 53 54 56 59 61 64 66 68 70 70 70 69 67 66 64 64 63 64 64 65 65 65 66 67 68 69 71 71 72
60 59 59 59 59 59 60 61 63 62 59 57 57 58 58 59 60 58 55 54 52 50 48 48 47 46 46 46 46 47 48 49 50 51 51 51 51 50 51 51 50 51 51 52 53 54 55 55 56 56 56 55 55 54 53 53 54 55 57 60 62 64 66 67 68 68 68 67 67 66 65 65 65 65 65 65 65 65 66 67 68 69 70 71 72 72
57 57 57 57 57 59 61 62 62 61 58 57 58 58 58 58 57 55 54 53 51 49 48 48 48 49 50 51 51 51 51 51 51 52 52 52 52 52 52 52 53 54 54 55 56 56 56 56 55 54 54 53 53 53 53 54 56 58 60 62 64 65 66 67 68 68 68 68 68 67 66 66 66 66 66 66 66 67 68 69 70 70 71 72 72 72
53 53 53 54 55 58 60 60 60 60 59 59 59 58 56 54 53 51 50 50 50 50 51 52 54 55 55 56 57 57 56 56 55 54 54 54 53 54 54 54 55 56 56 56 56 56 55 54 53 52 52 52 53 54 55 57 58 61 62 64 65 67 68 69 69 69 69 68 67 67 66 66 66 66 66 67 68 69 69 70 70 71 71 71 72 72
57 54 54 54 54 55 56 56 56 57 56 54 53 52 51 51 50 50 50 50 51 53 54 55 57 58 58 59 59 60 60 60 60 60 59 59 58 58 58 58 58 57 57 57 56 55 54 53 53 54 54 55 56 57 59 60 61 63 64 65 66 67 67 67 67 66 66 66 66 66 66 66 67 67 68 69 69 69 70 70 70 71 71 71 72 72
65 62 61 60 59 58 57 54 52 52 52 50 50 50 50 51 52 52 53 54 55 57 58 59 60 61 62 63 63 63 63 63 62 62 62 62 61 61 60 59 59 58 57 56 56 55 55 55 56 57 58 59 60 61 61 62 63 63 64 64 64 64 64 64 64 64 65 65 66 66 67 67 68 68 68 69 69 69 69 70 70 70 71 71 72 73
71 70 70 69 68 66 63 60 58 59 60 60 60 60 60 61 62 63 64 66 66 67 67 67 67 68 68 67 66 65 64 63 62 61 61 60 60 59 59 58 58 57 56 56 56 57 58 58 59 60 60 61 62 62 62 62 62 62 61 61 61 62 62 63 64 65 65 66 66 67 67 67 67 68 68 68 68 69 69 69 70 71 71 72 73 74
75 75 76 76 75 74 71 68 67 68 68 68 68 68 68 69 69 69 70 70 69 69 68 67 67 66 65 64 63 62 61 60 59 59 59 58 58 57 57 57 56 57 57 58 58 59 60 61 61 61 62 62 61 61 61 60 60 60 60 61 62 62 63 64 64 64 65 65 66 66 66 67 67 67 67 68 68 68 69 70 71 72 72 74 75 75
76 75 76 77 79 80 77 74 74 73 73 73 72 71 71 70 70 69 69 67 67 66 65 63 62 61 60 60 59 58 57 57 56 56 56 56 56 56 56 57 57 58 59 59 60 61 61 61 61 61 60 60 60 60 60 60 60 61 61 62 62 63 63 64 64 64 65 65 66 66 67 67 67 67 68 68 69 70 71 72 73 74 75 75 76 76
74 73 73 74 76 77 76 76 76 75 74 74 73 72 71 70 69 69 68 67 66 66 64 62 60 59 58 56 55 55 54 54 54 54 54 55 56 57 58 59 59 60 60 61 61 60 60 60 60 59 60 60 60 60 61 61 61 62 62 62 62 63 63 63 64 64 65 66 66 67 67 68 68 69 70 71 72 72 73 74 75 75 75 75 75 75
Wind_Direction
257 259 261 265 266 265 266 268 271 274 277 280 282 284 286 287 289 291 291 291 290 287 285 285 283 282 278 276 276 277 276 275 274 275 277 277 274 271 269 270 270 271 274 276 278 278 278 278 278 277 275 273 273 273 272 272 270 269 268 267 266 266 266 266 266 266 267 268 268 268 269 270 269 269 268 266 265 264 264 265 266 266 268 269 271 274
258 260 263 265 265 266 268 270 272 274 276 279 282 284 286 288 289 290 291 291 290 287 287 286 283 281 279 274 273 275 277 275 274 277 279 278 275 273 271 270 270 273 276 278 280 280 280 280 279 278 276 274 272 272 272 272 271 270 269 268 267 266 266 266 265 265 267 269 269 269 269 268 268 267 265 264 262 261 261 261 262 264 267 269 272 275
259 260 263 265 265 268 270 271 272 273 275 279 282 284 286 288 289 290 291 290 289 288 288 286 283 281 281 278 275 275 274 272 273 277 280 278 275 271 268 269 271 274 276 277 280 282 283 282 281 279 277 275 274 272 271 271 270 270 269 269 267 267 266 266 266 266 266 268 269 271 270 269 269 268 267 265 263 262 261 260 261 264 267 271 275 278
260 262 263 265 266 268 270 271 273 275 277 279 281 284 286 288 289 290 290 289 289 289 288 285 282 280 283 282 280 277 274 272 273 277 279 278 274 269 267 269 272 274 276 278 280 282 283 283 282 280 277 276 275 273 270 269 269 269 269 268 267 266 266 265 265 265 266 267 268 270 271 271 271 272 272 271 270 268 266 265 266 268 271 274 277 279
262 263 263 265 266 268 270 273 275 276 277 279 281 284 286 288 288 289 289 288 288 287 287 286 282 280 282 283 283 281 277 277 278 279 280 278 273 270 270 271 274 277 279 281 282 282 283 283 282 280 277 276 274 272 270 269 269 269 268 267 267 266 266 265 265 265 266 267 269 270 271 272 273 274 275 274 273 271 270 270 271 273 275 276 277 279
262 263 264 265 267 268 270 272 274 275 277 279 281 284 286 287 288 288 288 287 285 284 284 284 283 281 280 281 283 281 278 279 280 280 280 278 274 272 273 274 276 279 281 282 283 283 284 283 282 279 277 275 272 271 270 270 270 269 268 267 266 266 266 266 266 266 267 269 270 271 271 273 274 274 274 272 271 270 269 270 272 274 275 277 278 279
261 263 264 265 267 268 269 271 274 276 277 279 281 284 286 286 287 287 287 286 285 284 282 280 283 284 281 280 282 279 276 277 278 279 278 275 274 274 274 276 278 279 280 282 283 283 283 283 281 279 276 274 271 269 269 268 268 268 268 267 266 265 265 266 266 267 268 270 271 271 271 272 273 273 271 269 268 268 268 269 272 274 276 277 278 279
261 262 263 265 266 267 269 272 273 274 277 279 281 282 283 284 286 286 287 286 285 284 280 279 285 286 281 279 280 276 274 277 278 277 275 273 273 274 275 277 278 278 279 281 282 283 283 282 281 278 276 274 272 269 267 266 266 267 267 267 266 265 265 265 266 267 269 270 270 270 270 271 272 270 268 267 267 267 268 271 273 275 276 277 278 280
262 262 263 263 265 267 270 271 271 273 276 277 279 279 281 282 283 285 285 284 284 282 279 282 289 286 281 279 278 273 274 279 277 272 271 271 272 274 275 276 277 278 279 280 282 282 282 282 280 278 275 274 272 269 267 266 265 265 265 266 265 264 263 263 265 267 268 268 268 268 269 270 269 268 267 266 267 269 271 273 275 276 277 278 280 282
262 263 264 264 266 268 269 270 270 272 273 275 276 277 279 281 283 284 283 282 282 280 281 286 289 285 281 278 277 277 280 281 275 271 270 271 272 274 275 275 276 277 279 280 282 282 282 281 280 278 275 272 270 269 267 267 265 264 263 264 263 262 262 262 264 266 266 266 266 267 268 267 266 266 266 267 269 271 273 275 276 277 279 280 282 284
262 263 264 265 266 267 268 269 270 270 271 274 276 278 280 282 282 282 281 280 279 279 283 286 285 282 279 278 281 283 282 281 277 275 274 273 274 276 276 276 276 277 279 280 282 282 282 280 279 277 275 271 269 267 267 266 264 263 261 261 260 260 260 261 262 263 263 263 264 265 265 265 265 266 267 270 272 274 275 277 278 280 281 282 284 286
262 263 264 265 266 266 267 268 269 270 272 274 277 279 280 280 279 278 277 277 277 280 284 284 281 277 276 280 289 288 287 287 281 276 275 275 275 275 276 277 277 278 279 280 282 282 281 281 279 277 275 272 270 268 266 264 263 261 260 259 259 259 259 260 261 261 261 262 263 263 264 265 266 268 270 272 274 275 277 279 280 282 283 284 286 287
261 262 263 265 265 267 269 270 271 272 273 274 275 276 276 275 275 275 276 277 279 282 283 280 278 274 274 281 289 289 290 290 284 281 280 278 276 275 275 277 278 280 280 281 281 281 281 281 280 278 276 274 271 268 265 263 262 260 259 258 258 258 259 259 259 259 260 261 262 263 264 266 267 269 271 273 275 277 278 280 281 282 284 285 286 286
261 262 263 265 267 269 270 271 271 272 272 272 272 272 272 272 273 275 278 278 278 279 278 277 276 273 275 282 286 286 287 287 288 289 286 283 281 280 278 278 278 278 279 280 280 280 280 279 278 277 275 273 270 266 264 262 260 258 257 257 257 257 257 258 258 258 259 261 262 264 266 267 269 270 272 273 275 277 279 280 281 282 283 284 285 286
262 263 264 266 268 269 270 271 271 271 271 271 271 271 270 271 273 276 277 275 275 276 275 275 274 274 278 282 281 281 282 286 290 290 290 290 287 285 282 279 277 277 278 280 280 279 278 277 277 275 273 271 268 264 262 261 259 257 255 255 255 255 256 256 257 258 260 262 264 266 267 268 269 270 272 274 275 277 279 280 281 282 283 284 285 286
264 265 265 267 268 268 269 269 269 268 269 269 269 269 269 270 271 272 272 272 274 275 274 274 274 276 279 279 278 280 283 288 290 290 292 293 292 289 286 281 278 277 278 279 279 278 277 277 276 273 271 269 267 264 262 260 258 256 254 254 254 255 255 256 257 259 262 264 266 266 267 268 269 271 272 274 276 277 279 280 281 283 284 285 286 286
264 264 265 265 265 265 265 266 266 267 267 267 267 267 267 267 265 265 268 270 272 273 273 274 274 276 278 277 278 281 284 286 287 289 291 292 295 295 288 283 279 277 277 278 278 278 277 276 274 272 269 267 265 263 262 260 257 255 254 254 255 256 256 257 258 260 263 265 266 267 268 269 270 272 273 275 277 279 280 282 283 284 285 286 287 287
262 262 261 261 261 261 262 263 263 263 264 264 265 266 264 263 262 263 267 269 270 272 273 274 274 275 276 277 279 281 282 282 282 286 290 291 294 294 289 284 281 279 279 278 277 277 276 275 273 271 268 265 263 262 260 259 258 256 256 256 256 256 256 257 258 262 265 267 268 269 270 271 272 273 275 277 279 281 283 284 285 286 286 287 288 289
259 259 258 258 258 258 258 259 259 260 261 262 264 265 264 263 264 264 265 267 268 270 271 272 273 273 274 276 278 278 278 280 283 288 292 290 289 289 288 284 281 280 279 277 277 276 276 275 273 270 268 266 264 263 261 260 260 259 258 257 256 256 256 258 261 264 268 270 271 273 274 275 275 277 278 280 282 283 284 285 285 286 287 288 289 289
257 257 256 255 255 256 256 257 258 259 260 262 263 265 265 264 264 263 263 264 266 267 269 272 273 273 274 275 276 276 276 280 286 292 293 288 284 285 286 283 281 278 277 276 276 276 275 274 272 270 268 267 266 264 263 263 262 261 260 258 257 257 258 260 264 267 270 273 275 277 278 278 279 280 281 282 283 283 283 284 285 286 287 288 289 289
256 256 255 254 254 255 256 258 260 261 261 261 261 261 261 262 262 263 262 262 263 265 270 275 274 272 272 273 274 275 276 283 289 290 290 287 282 281 283 283 279 276 274 273 273 273 272 271 270 269 268 267 266 266 265 264 264 262 261 260 259 259 261 263 265 268 272 274 276 277 279 280 281 282 283 283 283 284 284 284 285 286 287 288 289 289
258 258 257 256 255 255 256 258 259 258 256 255 255 256 257 258 258 259 260 263 266 270 274 275 272 270 271 273 275 277 280 286 289 289 291 291 284 281 281 280 278 275 274 272 271 270 268 267 266 266 266 266 266 267 267 266 266 265 263 261 260 261 263 265 267 270 272 275 276 278 280 281 283 284 284 284 284 285 285 285 286 287 287 288 288 288
258 257 254 253 251 251 252 253 252 253 253 253 253 253 253 254 256 259 264 268 270 270 270 269 269 270 272 274 275 278 282 286 287 288 289 291 288 284 279 277 277 276 274 273 271 269 267 265 265 265 265 265 265 265 266 266 266 265 263 263 263 264 266 268 270 272 274 275 277 279 280 282 283 284 284 284 284 285 285 285 285 286 286 287 287 287
253 252 250 250 250 250 250 251 251 252 252 252 253 253 253 256 259 263 265 266 264 264 265 266 267 269 272 274 276 279 283 284 284 286 287 289 287 283 279 277 278 276 272 269 268 267 265 264 264 264 264 264 264 264 264 264 264 264 264 265 266 267 268 269 271 272 274 275 277 279 280 281 282 283 284 284 284 284 284 284 284 285 285 286 287 288
249 250 249 249 249 249 249 249 250 251 252 254 257 258 260 261 261 260 261 260 260 261 262 263 265 269 274 276 277 280 282 283 284 285 286 287 285 281 279 278 276 273 269 266 265 264 263 263 263 263 264 265 265 264 264 264 265 265 266 266 266 267 268 269 270 272 274 276 277 279 280 281 282 282 283 283 284 284 284 284 284 284 285 286 287 288
247 249 248 247 247 247 249 251 253 254 258 261 262 261 261 260 259 259 260 259 259 260 259 261 265 271 274 276 277 279 281 282 284 285 285 285 284 281 278 275 272 270 268 266 263 261 260 261 262 263 264 264 263 263 265 266 266 267 268 268 268 269 269 271 272 274 276 277 278 279 280 281 281 282 282 283 283 284 284 284 284 284 285 286 287 288
247 248 248 248 248 250 252 255 256 256 258 259 259 258 258 256 256 258 258 258 260 261 261 263 268 270 270 271 275 278 281 282 284 285 285 285 283 279 275 272 270 269 267 263 259 256 257 258 259 261 262 262 262 264 266 268 269 269 269 270 271 272 273 274 275 276 277 278 279 279 279 280 281 282 283 283 284 284 284 284 284 284 285 286 287 288
248 249 250 251 252 252 254 255 256 255 255 256 256 257 257 256 255 256 256 258 262 264 264 266 269 269 267 270 275 278 280 282 283 284 284 281 277 274 272 271 270 267 263 259 256 254 254 254 256 258 259 261 263 266 268 271 271 271 271 272 273 274 275 276 276 277 278 278 279 279 280 281 283 284 285 285 285 285 284 284 284 284 285 286 288 290
249 250 251 251 251 251 251 252 253 253 253 253 254 255 256 256 256 257 260 262 265 266 266 267 269 271 271 273 275 276 279 281 282 281 279 276 273 270 269 268 267 265 262 258 255 254 254 254 256 257 258 261 265 268 271 272 271 271 271 272 273 274 276 277 278 279 280 280 281 280 280 281 283 285 287 288 287 287 286 284 284 284 286 288 290 292
248 248 247 247 247 246 245 248 251 252 251 251 251 253 256 257 258 259 261 263 265 267 268 270 271 272 273 274 274 276 279 280 278 276 274 272 270 268 268 267 266 266 264 260 256 254 256 257 259 260 262 265 268 269 270 269 268 268 269 271 273 275 277 278 280 281 282 282 282 281 281 282 285 287 290 292 291 289 287 285 286 287 289 291 292 294
246 246 245 247 249 246 243 247 251 252 253 252 251 252 255 257 257 258 261 264 267 269 271 271 271 270 271 274 275 275 277 276 275 274 273 271 270 269 269 269 269 269 269 266 263 260 259 260 262 264 267 268 268 268 268 268 267 268 270 272 274 277 279 280 282 284 284 282 283 284 284 285 287 290 293 293 292 289 287 286 287 288 290 291 292 293
243 245 245 247 252 251 247 249 253 255 256 254 251 251 255 259 261 263 266 267 268 269 269 269 269 269 270 272 271 270 271 273 274 275 273 271 270 270 270 271 271 271 271 272 271 269 267 266 266 266 267 267 268 269 269 269 269 271 273 275 277 279 281 283 284 284 283 283 284 286 286 286 287 289 289 289 288 286 285 285 286 287 289 290 291 291
239 245 247 249 253 254 250 250 252 254 255 255 253 253 258 262 264 265 265 265 266 267 267 267 268 269 269 268 268 268 269 270 271 272 272 272 272 273 274 274 274 274 274 275 275 274 273 271 271 271 269 269 270 271 271 272 273 275 276 278 280 282 283 284 284 284 284 285 287 286 284 284 286 285 283 282 282 282 281 282 283 285 288 289 290 292
238 242 246 248 251 252 250 250 252 253 253 256 257 257 258 259 260 262 262 262 264 266 266 268 269 269 268 268 268 269 269 269 270 271 273 274 273 274 274 275 274 274 274 275 275 274 272 271 272 273 274 274 275 276 276 277 279 280 281 282 283 283 284 283 283 284 286 287 286 283 281 282 282 280 278 278 279 279 279 280 283 286 288 290 291 292
240 241 243 246 248 250 250 250 252 253 253 256 256 255 255 257 259 260 260 261 264 268 270 272 273 272 272 271 271 271 272 272 273 273 274 274 273 272 272 273 273 273 273 273 272 271 270 270 270 272 274 276 277 279 280 281 282 282 283 283 284 284 284 283 284 287 288 287 283 280 279 279 277 276 276 276 277 277 279 281 285 288 289 290 292 293
244 244 245 246 247 248 248 249 251 253 254 254 253 252 252 255 258 261 261 262 266 271 273 274 276 276 275 274 274 274 275 275 274 274 275 274 274 273 272 272 271 270 269 269 268 269 270 270 271 272 274 275 277 279 280 281 281 282 283 283 283 284 285 286 287 288 286 282 278 275 275 275 274 274 275 276 277 278 281 284 287 288 289 290 292 293
246 246 247 247 247 247 249 251 252 253 252 252 253 254 254 255 257 260 262 263 267 272 273 275 277 277 275 275 276 276 276 276 275 275 276 275 275 274 273 271 270 269 268 268 268 269 270 271 272 274 275 277 277 278 279 280 281 281 281 282 283 284 285 286 285 283 279 276 272 271 272 272 272 273 274 276 278 280 283 285 287 288 289 290 291 293
250 249 250 251 253 254 255 255 254 253 253 254 255 257 257 258 260 261 263 264 268 271 272 272 274 275 274 273 273 274 274 274 274 275 276 275 275 274 274 273 273 273 272 271 271 271 271 272 274 275 276 277 278 278 278 278 278 279 280 281 282 283 282 280 278 275 272 270 268 268 269 270 271 273 275 277 280 282 284 285 287 288 289 290 291 292
251 250 251 254 256 257 257 257 256 255 258 261 260 259 259 260 262 264 265 267 269 270 270 271 272 272 271 271 271 271 272 273 274 275 274 274 274 275 275 276 276 275 275 274 274 274 274 275 276 276 277 277 277 277 277 277 277 279 280 280 279 277 275 273 272 269 268 266 266 266 267 269 271 273 276 279 282 284 285 286 288 289 290 291 291 291
250 251 251 253 256 257 258 259 258 259 263 264 263 262 261 261 261 261 265 270 273 271 269 269 269 268 268 269 270 271 273 275 276 275 274 275 275 275 276 276 277 277 276 276 276 276 276 276 277 277 277 276 276 276 276 277 278 278 277 275 273 272 271 269 267 266 265 265 266 266 268 270 273 276 279 282 284 285 287 288 289 290 290 290 290 290
251 252 253 254 256 257 259 260 260 260 262 263 262 262 261 261 260 262 267 272 271 267 266 268 269 269 270 270 271 272 273 274 275 275 276 277 277 277 278 278 278 278 279 279 279 278 278 278 277 277 276 276 277 277 278 278 278 276 274 272 271 269 268 267 266 265 265 265 266 267 270 273 277 280 283 284 286 287 288 289 289 289 289 289 289 289
253 254 255 256 257 259 260 260 259 260 261 263 263 263 262 262 263 265 267 266 264 264 266 269 270 270 271 272 272 273 273 274 275 276 277 279 279 280 280 280 280 280 279 279 279 279 279 278 278 278 278 278 279 279 279 279 278 277 275 272 270 269 267 267 265 265 265 266 268 271 275 278 281 283 285 286 287 288 288 288 288 288 287 288 288 288
253 255 256 257 258 258 259 257 258 261 263 263 262 262 262 262 263 264 264 263 264 266 267 268 269 271 273 275 276 276 276 276 277 279 279 280 280 279 279 279 279 278 277 277 277 277 278 278 278 279 279 280 280 280 280 279 277 275 273 270 268 267 265 264 265 266 268 271 274 277 279 281 283 284 285 286 286 286 286 286 286 286 286 287 287 287
253 254 256 258 258 256 255 256 258 261 262 260 258 259 260 261 261 262 262 263 265 266 267 269 272 274 276 278 280 280 281 281 282 282 282 281 280 279 278 277 277 276 276 276 276 277 278 278 278 279 279 279 278 278 277 275 273 271 269 268 267 267 267 268 269 271 273 275 277 279 280 282 283 284 284 285 285 285 285 285 285 286 286 286 287 287
251 253 254 254 253 251 251 252 254 255 255 255 256 257 257 259 260 262 263 265 266 268 270 273 275 276 278 280 281 282 283 283 284 285 284 284 283 281 280 278 277 277 277 277 277 277 277 277 277 277 277 277 276 275 274 272 271 269 268 268 268 268 269 270 272 273 274 276 277 279 280 281 282 282 283 284 284 284 285 285 285 286 286 286 287 287
247 248 249 249 249 248 248 248 248 250 251 253 254 255 256 259 261 263 265 267 269 271 273 275 276 278 279 280 281 282 283 284 284 284 284 283 283 282 281 280 279 278 277 277 276 276 276 276 277 277 278 277 276 275 274 272 271 270 269 269 269 269 270 271 272 274 275 276 277 278 279 280 281 282 283 284 284 285 285 285 286 286 286 287 287 287
246 246 247 248 248 249 249 248 249 252 253 255 257 259 260 262 265 267 269 270 272 273 274 276 277 278 279 280 281 282 283 283 283 282 282 281 280 280 279 279 278 278 277 277 277 277 277 278 278 278 278 277 275 274 273 272 271 270 270 270 270 270 271 272 273 274 275 277 278 279 280 281 282 283 283 284 284 285 285 285 286 286 286 287 287 287
246 247 248 249 249 250 251 251 252 256 260 263 266 268 269 270 271 272 273 275 276 277 277 278 279 279 279 280 280 281 281 281 280 280 279 278 278 278 277 277 278 278 278 278 278 278 278 278 277 276 275 274 273 272 271 271 270 270 270 271 271 272 273 274 275 276 277 279 280 280 281 282 283 283 284 284 284 285 285 285 285 286 286 286 286 286
248 248 248 249 250 252 253 254 258 262 266 268 271 273 274 274 275 276 277 278 279 279 279 279 279 279 279 279 279 278 278 277 277 277 276 276 277 277 277 278 278 278 278 278 277 277 276 275 274 273 272 271 271 271 270 270 271 271 272 272 273 274 275 276 278 279 279 280 281 281 282 283 283 283 284 284 284 284 284 284 284 285 285 285 285 285
249 250 250 251 252 254 256 259 262 266 268 269 271 273 274 275 277 278 278 278 279 279 279 279 278 278 277 276 276 275 275 274 275 275 275 276 277 277 278 278 277 276 276 275 274 274 273 273 272 271 271 270 270 271 271 272 273 273 274 275 276 278 279 279 280 281 281 281 282 282 283 283 283 283 284 284 283 283 283 283 283 284 284 284 284 285
251 252 253 255 256 257 259 262 264 266 268 269 271 272 274 275 276 277 277 277 277 277 278 278 277 277 276 275 274 274 274 274 274 275 275 276 275 275 275 274 274 273 273 272 272 271 271 271 271 271 271 272 273 273 274 275 276 277 278 279 280 281 281 281 282 282 282 282 283 283 283 283 283 283 283 283 283 283 283 283 284 284 284 285 285 285
Height
5845 5846 5848 5849 5848 5848 5848 5848 5849 5849 5849 5849 5850 5850 5850 5850 5850 5849 5847 5846 5845 5845 5846 5845 5844 5846 5848 5848 5846 5845 5845 5847 5847 5846 5846 5845 5844 5844 5844 5844 5844 5843 5843 5842 5842 5842 5842 5842 5841 5841 5840 5840 5840 5839 5839 5839 5839 5839 5838 5838 5839 5839 5839 5839 5839 5838 5838 5838 5838 5838 5837 5837 5837 5837 5836 5836 5836 5836 5836 5836 5835 5835 5835 5835 5835 5835
5842 5843 5845 5845 5844 5844 5845 5845 5846 5846 5846 5846 5846 5846 5846 5846 5846 5845 5844 5843 5841 5840 5842 5841 5840 5842 5844 5844 5843 5842 5842 5844 5843 5843 5842 5842 5841 5841 5841 5840 5840 5840 5840 5839 5838 5838 5838 5838 5838 5837 5836 5836 5836 5836 5835 5835 5835 5835 5835 5835 5835 5835 5835 5835 5835 5835 5835 5834 5834 5834 5834 5834 5834 5833 5833 5833 5832 5832 5832 5832 5831 5831 5831 5831 5831 5831
5838 5840 5841 5840 5840 5841 5841 5842 5842 5842 5843 5843 5843 5842 5843 5842 5841 5841 5840 5839 5837 5836 5837 5837 5836 5838 5841 5841 5841 5840 5839 5840 5840 5839 5839 5838 5838 5838 5838 5837 5837 5837 5836 5836 5835 5834 5834 5834 5834 5833 5832 5832 5833 5832 5832 5831 5832 5832 5832 5832 5832 5832 5832 5832 5832 5832 5832 5832 5831 5831 5831 5831 5830 5830 5830 5829 5829 5829 5828 5828 5827 5827 5827 5827 5827 5827
5835 5836 5837 5837 5837 5838 5838 5838 5838 5839 5840 5840 5839 5839 5839 5839 5837 5837 5837 5835 5833 5832 5832 5833 5831 5834 5838 5837 5838 5837 5836 5837 5837 5836 5836 5835 5835 5835 5834 5834 5833 5833 5832 5832 5832 5831 5830 5830 5830 5829 5828 5828 5829 5828 5828 5828 5828 5828 5828 5828 5828 5828 5829 5829 5829 5829 5829 5828 5828 5828 5828 5827 5827 5827 5827 5826 5826 5826 5825 5825 5824 5824 5824 5823 5823 5823
5832 5832 5833 5833 5834 5834 5834 5834 5835 5835 5835 5836 5836 5835 5835 5835 5833 5833 5832 5830 5830 5829 5828 5828 5825 5830 5835 5834 5835 5835 5832 5833 5833 5832 5832 5831 5831 5831 5830 5830 5830 5829 5829 5828 5828 5827 5826 5827 5826 5826 5825 5824 5825 5824 5824 5824 5824 5824 5825 5824 5825 5825 5825 5825 5825 5825 5825 5825 5825 5825 5824 5824 5824 5823 5823 5822 5822 5822 5822 5821 5821 5820 5820 5819 5819 5818
5828 5828 5828 5830 5830 5830 5831 5831 5831 5831 5831 5832 5832 5832 5831 5830 5829 5829 5828 5826 5825 5825 5826 5824 5819 5823 5831 5832 5832 5833 5829 5829 5829 5828 5829 5828 5827 5827 5826 5826 5826 5826 5825 5824 5824 5823 5822 5823 5822 5822 5821 5821 5821 5821 5820 5820 5820 5821 5821 5821 5821 5821 5821 5821 5821 5821 5821 5821 5821 5821 5821 5820 5820 5819 5819 5818 5818 5818 5818 5817 5817 5816 5816 5815 5815 5814
5824 5824 5824 5825 5826 5826 5827 5828 5828 5826 5827 5827 5828 5828 5826 5826 5825 5824 5824 5822 5820 5821 5822 5822 5817 5817 5823 5828 5830 5829 5826 5826 5826 5825 5825 5824 5823 5823 5822 5822 5822 5822 5821 5821 5820 5819 5819 5819 5818 5818 5817 5817 5817 5817 5816 5816 5816 5817 5817 5817 5817 5817 5817 5817 5817 5817 5817 5817 5817 5817 5817 5817 5816 5815 5815 5814 5814 5814 5813 5813 5812 5812 5812 5811 5811 5810
5819 5819 5820 5821 5821 5822 5823 5825 5824 5822 5823 5823 5824 5824 5822 5822 5821 5819 5819 5817 5816 5816 5815 5819 5819 5812 5813 5823 5826 5825 5823 5824 5824 5822 5821 5821 5819 5819 5818 5818 5818 5818 5817 5817 5816 5815 5815 5815 5814 5814 5813 5813 5813 5813 5812 5812 5813 5813 5813 5813 5813 5813 5813 5813 5813 5813 5813 5813 5813 5813 5813 5812 5812 5811 5811 5810 5810 5809 5809 5809 5808 5808 5808 5807 5806 5805
5813 5814 5816 5816 5817 5818 5820 5821 5820 5819 5819 5819 5820 5819 5818 5817 5816 5815 5814 5813 5812 5810 5809 5816 5819 5809 5804 5815 5820 5820 5821 5821 5821 5820 5818 5817 5816 5815 5815 5814 5813 5813 5813 5813 5812 5811 5811 5811 5810 5810 5809 5809 5809 5808 5808 5808 5809 5809 5809 5809 5809 5809 5809 5809 5809 5809 5809 5809 5809 5809 5808 5808 5807 5807 5807 5806 5806 5805 5805 5805 5804 5804 5803 5802 5801 5800
5807 5808 5810 5811 5813 5815 5816 5815 5815 5815 5815 5815 5815 5814 5814 5813 5812 5811 5809 5809 5808 5803 5805 5815 5817 5806 5796 5804 5815 5815 5817 5818 5817 5817 5815 5814 5813 5811 5810 5810 5809 5809 5809 5809 5808 5807 5807 5807 5806 5805 5805 5805 5804 5804 5804 5804 5805 5805 5805 5805 5805 5805 5805 5805 5805 5805 5805 5805 5805 5804 5804 5803 5803 5803 5802 5802 5801 5801 5800 5800 5799 5799 5798 5797 5795 5794
5802 5804 5805 5806 5809 5810 5811 5810 5811 5811 5810 5811 5811 5810 5810 5808 5807 5806 5804 5806 5802 5797 5804 5811 5812 5804 5789 5793 5809 5812 5812 5814 5813 5812 5811 5810 5809 5807 5806 5805 5805 5805 5805 5805 5804 5803 5802 5802 5802 5801 5800 5800 5800 5800 5800 5800 5800 5800 5800 5800 5800 5800 5800 5800 5800 5800 5800 5800 5800 5800 5799 5799 5798 5798 5798 5797 5797 5796 5796 5795 5794 5793 5792 5791 5790 5788
5797 5798 5799 5801 5803 5805 5805 5806 5806 5806 5807 5807 5806 5805 5805 5803 5802 5801 5799 5800 5796 5794 5802 5806 5806 5800 5787 5790 5804 5805 5805 5808 5808 5808 5807 5806 5805 5803 5801 5800 5801 5801 5801 5800 5799 5798 5798 5797 5797 5797 5796 5796 5795 5795 5795 5795 5795 5795 5795 5795 5795 5796 5796 5796 5796 5796 5796 5795 5795 5795 5794 5794 5794 5793 5793 5792 5791 5791 5790 5790 5789 5788 5786 5785 5784 5782
5792 5793 5794 5795 5797 5799 5800 5801 5801 5802 5802 5802 5802 5801 5799 5798 5796 5794 5794 5795 5793 5792 5796 5798 5798 5792 5787 5793 5801 5799 5799 5801 5801 5803 5803 5802 5801 5799 5798 5796 5796 5796 5795 5795 5794 5793 5793 5793 5792 5792 5791 5791 5791 5790 5790 5790 5791 5791 5791 5791 5791 5791 5791 5791 5791 5791 5791 5791 5790 5790 5790 5789 5789 5788 5788 5787 5786 5786 5785 5784 5783 5782 5780 5779 5778 5776
5786 5787 5790 5791 5792 5794 5794 5795 5796 5796 5796 5796 5796 5795 5794 5793 5790 5789 5790 5790 5789 5789 5790 5791 5790 5785 5787 5794 5797 5796 5795 5795 5796 5798 5797 5797 5796 5794 5794 5792 5791 5791 5790 5790 5789 5789 5788 5788 5787 5787 5786 5786 5786 5786 5785 5785 5786 5786 5786 5786 5786 5786 5786 5786 5786 5786 5786 5786 5786 5785 5785 5784 5784 5783 5782 5782 5781 5780 5779 5779 5777 5776 5774 5773 5772 5770
5780 5781 5785 5786 5787 5788 5788 5789 5790 5790 5790 5789 5790 5789 5788 5788 5786 5785 5786 5784 5783 5784 5784 5784 5782 5781 5786 5790 5791 5791 5792 5792 5792 5792 5792 5792 5791 5790 5789 5788 5786 5785 5785 5785 5785 5784 5784 5783 5783 5782 5782 5781 5781 5781 5781 5781 5781 5781 5781 5781 5781 5782 5782 5782 5782 5782 5782 5781 5781 5780 5780 5779 5778 5778 5777 5776 5776 5775 5774 5773 5771 5770 5768 5767 5765 5764
5774 5775 5780 5781 5781 5782 5782 5782 5783 5783 5783 5783 5783 5782 5782 5784 5784 5782 5779 5778 5779 5778 5776 5777 5777 5779 5783 5785 5785 5787 5788 5789 5788 5786 5787 5786 5786 5786 5784 5783 5782 5780 5780 5780 5779 5779 5778 5778 5778 5777 5777 5776 5776 5776 5776 5777 5777 5777 5777 5776 5777 5777 5777 5777 5777 5777 5777 5777 5776 5775 5775 5774 5773 5772 5772 5771 5770 5769 5768 5767 5765 5764 5763 5761 5759 5757
5768 5769 5773 5773 5773 5775 5774 5775 5775 5776 5776 5776 5776 5776 5778 5780 5779 5776 5774 5774 5774 5771 5769 5771 5773 5776 5778 5778 5781 5783 5783 5784 5783 5782 5782 5781 5781 5780 5779 5778 5777 5776 5775 5774 5774 5773 5773 5772 5772 5772 5772 5772 5772 5772 5772 5772 5772 5772 5772 5772 5773 5773 5773 5773 5773 5772 5772 5772 5771 5770 5770 5769 5768 5767 5766 5766 5765 5764 5763 5761 5760 5758 5757 5755 5753 5751
5761 5762 5764 5765 5765 5767 5768 5768 5768 5769 5769 5768 5769 5771 5773 5773 5772 5771 5770 5769 5769 5766 5763 5765 5768 5771 5772 5772 5776 5778 5777 5777 5778 5778 5778 5778 5777 5775 5774 5773 5772 5771 5771 5769 5769 5768 5768 5767 5767 5767 5767 5767 5767 5767 5767 5767 5767 5767 5768 5768 5769 5769 5769 5768 5768 5768 5768 5767 5766 5765 5765 5764 5763 5762 5761 5761 5760 5758 5757 5756 5754 5753 5751 5749 5747 5745
5754 5754 5755 5757 5758 5759 5760 5760 5761 5762 5762 5763 5765 5766 5767 5766 5766 5766 5765 5764 5764 5761 5758 5759 5761 5763 5766 5768 5769 5770 5770 5771 5774 5775 5775 5774 5773 5771 5770 5769 5768 5767 5766 5764 5764 5763 5763 5763 5763 5763 5763 5763 5763 5763 5763 5763 5763 5763 5764 5764 5764 5764 5764 5763 5763 5763 5763 5762 5762 5761 5760 5759 5758 5757 5756 5755 5754 5753 5751 5750 5748 5746 5745 5743 5741 5739
5747 5746 5747 5749 5750 5751 5752 5753 5754 5756 5758 5759 5760 5761 5760 5760 5759 5760 5760 5759 5758 5757 5755 5754 5753 5755 5760 5762 5762 5762 5764 5767 5769 5771 5771 5770 5768 5766 5766 5765 5764 5762 5761 5760 5759 5759 5759 5759 5759 5759 5759 5758 5758 5758 5758 5759 5759 5759 5760 5760 5760 5759 5759 5759 5759 5759 5758 5757 5757 5755 5754 5753 5752 5751 5751 5750 5748 5747 5745 5744 5742 5740 5738 5736 5734 5733
5739 5739 5740 5742 5743 5743 5745 5748 5749 5751 5753 5754 5754 5753 5753 5753 5753 5753 5753 5753 5753 5753 5754 5751 5747 5747 5753 5757 5755 5755 5758 5762 5764 5764 5765 5765 5762 5761 5761 5760 5759 5758 5756 5756 5756 5755 5755 5755 5755 5755 5754 5754 5754 5754 5754 5754 5754 5755 5755 5755 5755 5754 5754 5754 5754 5753 5753 5752 5751 5750 5748 5747 5747 5746 5745 5744 5742 5741 5739 5737 5735 5733 5731 5730 5728 5726
5732 5733 5735 5735 5736 5738 5740 5742 5743 5743 5745 5745 5746 5746 5746 5747 5746 5745 5745 5748 5750 5751 5752 5748 5740 5738 5746 5752 5750 5748 5752 5757 5757 5756 5758 5759 5757 5756 5756 5754 5753 5752 5752 5751 5751 5751 5751 5751 5750 5750 5750 5750 5750 5750 5750 5750 5750 5750 5750 5750 5749 5749 5749 5749 5748 5748 5747 5746 5745 5743 5742 5741 5741 5740 5739 5738 5736 5734 5733 5731 5729 5727 5725 5723 5721 5718
5726 5725 5725 5727 5729 5731 5732 5733 5734 5735 5736 5737 5738 5739 5739 5739 5739 5740 5742 5745 5746 5746 5746 5743 5735 5733 5741 5748 5745 5743 5748 5752 5750 5750 5751 5753 5752 5750 5750 5749 5748 5748 5747 5747 5747 5746 5746 5746 5746 5746 5746 5746 5746 5745 5745 5745 5745 5745 5744 5744 5744 5744 5744 5743 5743 5742 5741 5740 5738 5737 5736 5735 5734 5733 5732 5731 5729 5727 5726 5723 5721 5720 5718 5716 5713 5711
5717 5714 5716 5719 5722 5724 5724 5726 5728 5729 5729 5729 5729 5732 5733 5735 5737 5737 5738 5739 5739 5739 5739 5736 5731 5730 5736 5743 5741 5739 5743 5745 5743 5743 5744 5746 5746 5744 5744 5744 5744 5743 5742 5742 5742 5742 5741 5741 5741 5741 5741 5740 5740 5740 5740 5740 5739 5739 5739 5739 5739 5738 5738 5737 5737 5736 5734 5733 5732 5731 5730 5729 5728 5726 5725 5723 5722 5720 5718 5716 5714 5712 5710 5708 5705 5703
5708 5706 5710 5712 5714 5717 5718 5719 5721 5721 5721 5722 5725 5729 5730 5732 5733 5730 5731 5732 5730 5733 5733 5727 5725 5729 5734 5737 5737 5735 5736 5736 5736 5737 5737 5738 5739 5738 5739 5739 5738 5737 5737 5737 5737 5737 5737 5736 5736 5736 5736 5735 5735 5735 5734 5734 5734 5734 5734 5734 5733 5733 5732 5731 5730 5729 5728 5727 5726 5725 5724 5722 5721 5719 5718 5716 5714 5712 5710 5708 5706 5704 5702 5700 5697 5694
5699 5698 5702 5704 5705 5708 5710 5712 5716 5718 5718 5719 5722 5725 5725 5725 5725 5723 5725 5724 5722 5725 5725 5719 5721 5728 5732 5732 5731 5731 5731 5729 5729 5730 5730 5731 5732 5732 5733 5732 5732 5732 5732 5732 5732 5731 5731 5731 5730 5730 5730 5730 5730 5730 5729 5729 5730 5730 5729 5728 5728 5727 5726 5725 5724 5724 5722 5721 5720 5719 5717 5716 5714 5712 5710 5708 5706 5704 5702 5700 5699 5696 5694 5691 5688 5686
5691 5691 5694 5697 5699 5703 5707 5711 5713 5714 5713 5713 5716 5717 5717 5718 5719 5717 5716 5714 5714 5715 5715 5716 5720 5723 5725 5727 5727 5727 5726 5724 5723 5723 5722 5724 5724 5724 5724 5724 5725 5727 5726 5726 5725 5725 5725 5724 5724 5724 5724 5724 5724 5724 5724 5724 5724 5724 5723 5722 5722 5721 5721 5720 5719 5718 5716 5715 5714 5712 5710 5709 5707 5705 5703 5701 5698 5696 5695 5693 5690 5688 5685 5682 5680 5677
5682 5684 5689 5693 5694 5700 5706 5706 5705 5705 5706 5707 5709 5710 5710 5711 5711 5708 5706 5708 5710 5706 5706 5715 5716 5712 5717 5724 5724 5723 5720 5717 5717 5717 5716 5716 5716 5715 5715 5716 5718 5719 5719 5719 5718 5718 5718 5718 5718 5718 5718 5718 5718 5718 5719 5719 5718 5718 5717 5716 5716 5715 5715 5713 5712 5711 5710 5709 5707 5705 5703 5701 5699 5697 5695 5693 5691 5689 5687 5684 5682 5679 5676 5674 5671 5669
5676 5679 5685 5687 5688 5694 5700 5698 5695 5697 5699 5699 5701 5702 5703 5704 5703 5701 5701 5705 5704 5697 5698 5709 5708 5704 5711 5719 5718 5716 5712 5711 5712 5711 5708 5707 5706 5706 5707 5708 5709 5709 5711 5712 5712 5711 5712 5712 5712 5712 5712 5712 5712 5713 5713 5713 5712 5711 5710 5709 5709 5708 5708 5707 5706 5705 5703 5702 5700 5697 5695 5693 5691 5689 5687 5685 5683 5680 5678 5675 5673 5670 5668 5665 5663 5660
5670 5674 5678 5679 5680 5686 5692 5690 5688 5689 5690 5691 5693 5694 5696 5697 5696 5695 5695 5697 5695 5689 5694 5703 5699 5698 5706 5709 5708 5707 5704 5703 5704 5702 5700 5700 5698 5698 5699 5699 5700 5701 5702 5704 5705 5705 5706 5706 5705 5705 5706 5707 5707 5707 5706 5706 5705 5704 5703 5702 5702 5701 5701 5700 5698 5697 5695 5694 5692 5689 5687 5685 5683 5681 5678 5676 5674 5672 5669 5666 5664 5661 5659 5656 5654 5651
5665 5667 5670 5671 5672 5677 5684 5685 5681 5681 5682 5684 5686 5687 5690 5690 5689 5687 5688 5690 5689 5686 5691 5695 5690 5692 5701 5701 5699 5698 5695 5694 5694 5694 5695 5694 5692 5692 5692 5693 5693 5693 5693 5695 5697 5699 5699 5699 5699 5699 5700 5700 5700 5700 5699 5699 5698 5697 5696 5696 5695 5694 5693 5691 5690 5689 5687 5685 5683 5681 5679 5677 5674 5671 5669 5667 5665 5663 5661 5658 5655 5653 5651 5648 5646 5643
5659 5661 5663 5665 5664 5668 5677 5677 5674 5675 5674 5673 5677 5682 5684 5683 5681 5681 5683 5685 5683 5681 5684 5683 5680 5688 5696 5692 5689 5690 5688 5687 5688 5688 5688 5687 5686 5686 5686 5687 5687 5686 5686 5687 5688 5690 5691 5691 5691 5692 5693 5693 5692 5692 5692 5691 5690 5690 5689 5688 5687 5685 5684 5682 5682 5680 5678 5677 5675 5672 5671 5669 5667 5664 5662 5660 5658 5655 5653 5650 5647 5645 5643 5640 5637 5634
5653 5654 5657 5658 5657 5662 5668 5667 5667 5668 5663 5662 5672 5680 5680 5676 5674 5674 5675 5677 5676 5675 5674 5673 5675 5683 5687 5682 5680 5682 5682 5681 5682 5681 5680 5680 5680 5679 5680 5681 5680 5679 5680 5680 5681 5682 5683 5683 5682 5683 5684 5685 5684 5684 5683 5682 5682 5682 5681 5680 5678 5677 5676 5674 5673 5672 5670 5668 5666 5665 5663 5662 5660 5658 5655 5653 5650 5647 5645 5642 5639 5637 5635 5632 5628 5625
5647 5648 5650 5651 5651 5654 5658 5659 5658 5656 5652 5658 5671 5675 5671 5668 5667 5667 5667 5669 5670 5668 5667 5667 5671 5677 5677 5674 5674 5675 5674 5674 5675 5675 5675 5674 5674 5673 5674 5674 5673 5673 5674 5674 5674 5674 5674 5674 5674 5673 5674 5674 5674 5674 5673 5673 5673 5672 5671 5671 5670 5669 5668 5666 5665 5663 5662 5660 5658 5657 5656 5655 5653 5651 5648 5645 5642 5639 5637 5634 5632 5629 5626 5623 5620 5617
5641 5643 5644 5645 5645 5647 5650 5651 5647 5643 5648 5659 5665 5664 5663 5661 5659 5658 5659 5662 5664 5662 5662 5663 5666 5670 5670 5669 5669 5669 5668 5669 5669 5670 5670 5669 5668 5668 5668 5668 5668 5668 5668 5667 5667 5666 5666 5666 5666 5666 5666 5665 5665 5665 5664 5664 5664 5663 5662 5661 5661 5660 5659 5657 5656 5654 5653 5652 5651 5650 5649 5647 5645 5642 5640 5638 5634 5632 5629 5627 5624 5621 5618 5614 5611 5608
5635 5636 5637 5639 5639 5640 5641 5640 5637 5639 5647 5654 5654 5655 5656 5653 5651 5650 5651 5656 5660 5658 5655 5656 5659 5663 5663 5662 5663 5662 5662 5663 5663 5665 5665 5663 5662 5662 5662 5662 5662 5661 5660 5660 5659 5659 5659 5659 5659 5659 5659 5658 5658 5657 5657 5656 5655 5654 5654 5653 5652 5651 5650 5648 5647 5646 5646 5645 5644 5643 5642 5639 5636 5634 5632 5629 5627 5624 5622 5619 5616 5613 5609 5606 5603 5600
5628 5629 5631 5632 5632 5633 5632 5632 5633 5635 5640 5645 5647 5648 5648 5647 5647 5645 5643 5650 5657 5654 5649 5649 5653 5656 5656 5655 5655 5655 5654 5654 5656 5659 5659 5656 5655 5655 5655 5655 5654 5654 5654 5654 5654 5654 5654 5653 5653 5652 5651 5651 5650 5649 5649 5648 5647 5646 5646 5645 5644 5643 5641 5641 5640 5640 5640 5639 5637 5635 5633 5630 5628 5625 5623 5621 5619 5617 5614 5610 5607 5604 5600 5597 5594 5591
5621 5622 5624 5624 5624 5626 5626 5626 5627 5626 5631 5640 5644 5642 5641 5641 5641 5638 5636 5643 5652 5650 5644 5643 5646 5649 5649 5648 5648 5647 5646 5646 5649 5653 5652 5648 5648 5648 5647 5647 5647 5647 5648 5648 5648 5648 5647 5646 5646 5645 5644 5643 5642 5641 5641 5640 5639 5638 5638 5637 5636 5635 5635 5634 5634 5634 5632 5630 5628 5626 5624 5622 5620 5617 5615 5613 5611 5608 5604 5601 5598 5595 5592 5589 5585 5582
5614 5615 5617 5616 5616 5619 5619 5619 5618 5619 5626 5636 5638 5634 5635 5635 5634 5630 5628 5636 5646 5645 5639 5638 5641 5642 5641 5640 5639 5639 5638 5638 5642 5645 5643 5640 5640 5640 5639 5640 5640 5640 5640 5640 5640 5639 5639 5638 5638 5637 5637 5636 5634 5634 5633 5632 5631 5631 5630 5629 5628 5628 5628 5627 5627 5625 5623 5621 5619 5617 5616 5614 5611 5609 5607 5604 5601 5598 5595 5592 5589 5586 5583 5580 5576 5573
5606 5608 5609 5608 5609 5612 5613 5611 5611 5614 5622 5629 5629 5627 5628 5627 5626 5623 5622 5630 5639 5637 5632 5632 5633 5633 5633 5633 5632 5632 5631 5631 5634 5636 5634 5633 5633 5632 5632 5632 5632 5632 5632 5632 5632 5631 5630 5630 5630 5629 5629 5628 5627 5626 5625 5624 5624 5623 5622 5622 5621 5621 5620 5619 5617 5616 5614 5612 5611 5609 5607 5605 5602 5600 5597 5594 5592 5589 5586 5583 5580 5577 5574 5570 5567 5564
5598 5599 5600 5601 5603 5606 5606 5605 5605 5610 5617 5622 5621 5619 5619 5617 5616 5617 5619 5626 5629 5625 5623 5624 5625 5625 5627 5626 5626 5625 5625 5625 5626 5627 5626 5626 5625 5625 5625 5625 5624 5624 5624 5624 5624 5623 5622 5622 5622 5621 5621 5620 5619 5618 5617 5616 5616 5615 5614 5614 5613 5613 5612 5610 5609 5608 5606 5604 5603 5600 5598 5596 5593 5591 5588 5585 5582 5580 5577 5574 5571 5568 5565 5561 5558 5555
5591 5591 5592 5594 5597 5598 5599 5599 5598 5602 5612 5617 5613 5612 5612 5610 5609 5613 5616 5617 5617 5616 5617 5617 5617 5618 5619 5619 5619 5619 5619 5619 5619 5619 5619 5618 5618 5618 5618 5618 5617 5617 5617 5616 5615 5615 5614 5614 5614 5613 5613 5612 5611 5610 5609 5608 5608 5607 5606 5606 5605 5604 5603 5602 5601 5599 5598 5596 5593 5591 5589 5586 5584 5582 5579 5576 5574 5571 5568 5565 5561 5559 5556 5552 5549 5546
5583 5583 5583 5587 5590 5591 5591 5591 5590 5595 5607 5611 5606 5604 5605 5603 5603 5607 5608 5608 5609 5611 5610 5610 5610 5610 5610 5611 5612 5612 5612 5612 5612 5611 5611 5611 5611 5611 5611 5610 5610 5609 5609 5608 5607 5606 5606 5605 5605 5605 5604 5603 5602 5601 5600 5600 5599 5599 5598 5597 5597 5596 5595 5594 5593 5591 5589 5587 5584 5582 5580 5578 5575 5573 5570 5567 5565 5562 5559 5556 5552 5550 5547 5543 5540 5537
5573 5575 5577 5581 5583 5582 5581 5583 5586 5591 5599 5600 5598 5597 5597 5596 5597 5600 5600 5601 5602 5603 5602 5603 5603 5603 5603 5603 5603 5603 5604 5604 5604 5604 5603 5603 5603 5603 5603 5603 5602 5601 5600 5599 5598 5598 5597 5596 5595 5595 5594 5593 5593 5592 5592 5592 5591 5591 5590 5590 5589 5588 5587 5586 5584 5582 5580 5577 5575 5573 5571 5569 5566 5564 5561 5558 5555 5553 5550 5547 5543 5540 5537 5534 5531 5528
5567 5571 5572 5574 5575 5574 5574 5578 5582 5585 5588 5589 5589 5590 5590 5589 5590 5592 5593 5593 5594 5594 5595 5596 5595 5595 5596 5596 5595 5595 5595 5595 5595 5596 5595 5594 5594 5594 5593 5593 5593 5592 5591 5590 5589 5589 5588 5587 5587 5586 5586 5586 5585 5585 5584 5584 5583 5582 5582 5581 5581 5579 5578 5576 5575 5573 5571 5568 5566 5564 5562 5560 5557 5554 5552 5549 5546 5544 5541 5537 5534 5531 5528 5525 5522 5518
5562 5564 5565 5565 5566 5567 5568 5572 5575 5577 5579 5580 5581 5582 5582 5582 5582 5584 5584 5585 5586 5587 5588 5588 5588 5588 5588 5588 5587 5587 5587 5587 5587 5586 5586 5586 5585 5584 5584 5583 5583 5583 5583 5582 5581 5580 5579 5578 5578 5577 5577 5577 5576 5576 5575 5575 5574 5573 5573 5572 5571 5570 5568 5567 5565 5563 5561 5559 5557 5554 5552 5550 5547 5545 5542 5540 5537 5534 5531 5528 5525 5522 5519 5516 5513 5509
5555 5557 5557 5557 5558 5559 5561 5566 5569 5569 5570 5572 5572 5573 5574 5574 5574 5575 5576 5577 5578 5579 5580 5580 5580 5580 5580 5580 5580 5580 5579 5579 5578 5577 5576 5576 5575 5574 5574 5573 5573 5573 5573 5572 5572 5571 5570 5570 5569 5568 5568 5567 5566 5566 5566 5565 5565 5564 5563 5562 5561 5560 5559 5557 5555 5553 5551 5549 5547 5544 5542 5540 5538 5535 5533 5530 5528 5525 5522 5519 5516 5513 5510 5507 5503 5499
5549 5549 5547 5548 5550 5551 5554 5559 5562 5561 5562 5564 5564 5564 5565 5566 5566 5567 5567 5567 5569 5570 5571 5572 5572 5572 5572 5572 5572 5572 5571 5571 5569 5568 5567 5566 5566 5565 5565 5564 5563 5563 5562 5562 5562 5561 5561 5560 5560 5559 5559 5558 5557 5557 5556 5556 5555 5554 5554 5553 5551 5550 5549 5547 5545 5544 5541 5539 5537 5534 5532 5530 5528 5526 5523 5521 5518 5516 5513 5510 5507 5504 5501 5498 5493 5489
5538 5538 5539 5542 5543 5543 5547 5553 5554 5553 5554 5555 5555 5555 5555 5556 5557 5558 5558 5559 5560 5560 5561 5563 5563 5563 5564 5564 5563 5563 5563 5561 5561 5560 5559 5558 5558 5557 5556 5555 5555 5554 5554 5554 5553 5553 5552 5551 5551 5551 5550 5549 5549 5548 5548 5547 5546 5545 5544 5543 5541 5540 5539 5537 5535 5534 5531 5529 5527 5524 5522 5520 5518 5516 5513 5511 5508 5506 5503 5499 5496 5494 5491 5487 5482 5479
5528 5530 5534 5535 5534 5536 5543 5546 5544 5543 5544 5546 5546 5546 5546 5547 5549 5550 5550 5550 5551 5551 5552 5553 5554 5554 5555 5555 5554 5554 5553 5552 5552 5552 5551 5551 5550 5549 5549 5548 5548 5547 5547 5546 5545 5545 5544 5543 5543 5543 5542 5541 5540 5539 5539 5538 5537 5536 5535 5533 5532 5530 5529 5527 5526 5523 5521 5519 5517 5514 5512 5510 5508 5505 5503 5500 5498 5495 5492 5489 5485 5483 5480 5476 5472 5468
5521 5523 5526 5527 5527 5531 5535 5535 5533 5534 5537 5538 5539 5538 5538 5539 5541 5541 5541 5541 5541 5542 5544 5545 5545 5545 5545 5545 5545 5544 5544 5544 5543 5543 5544 5543 5543 5542 5542 5541 5540 5540 5539 5538 5538 5537 5536 5535 5535 5534 5533 5532 5531 5530 5529 5529 5527 5526 5525 5524 5522 5521 5519 5517 5515 5513 5510 5508 5506 5503 5501 5499 5496 5494 5491 5489 5486 5483 5481 5477 5474 5471 5468 5465 5461 5457